This demonstration page uses our WeatherBlox Daily Observations layout. Learn more.

Left ArrowRight Arrow

44.89941, -97.11507

Hourly Observations for June 26, 2022

Temp ( °F °C ) Dew Point ( °F °C ) Humidity (%) Winds ( mph kmh ) Pressure ( in mb ) Visibility ( mi km ) Precip ( " mm )
12:53 am 00:53 Clear 60 15.6 47 8.3 62 62 WNW 22 35 30.14 1021 10 16 0.00 0.00
1:53 am 01:53 Clear 58 14.4 47 8.3 67 67 W 14 22 30.15 1021 10 16 0.00 0.00
2:53 am 02:53 Clear 57 13.9 46 7.8 67 67 WNW 17 28 30.17 1022 10 16 0.00 0.00
3:53 am 03:53 Clear 57 13.9 47 8.3 69 69 NW 20 31 30.17 1022 10 16 0.00 0.00
4:53 am 04:53 Clear 56 13.3 47 8.3 72 72 NW 18 30 30.19 1022 10 16 0.00 0.00
5:53 am 05:53 Sunny 55 12.8 46 7.8 72 72 NW 21 33 30.21 1023 10 16 0.00 0.00
6:53 am 06:53 Sunny 54 12.2 47 8.3 77 77 NNW 17 28 30.22 1024 10 16 0.00 0.00
7:53 am 07:53 Sunny 57 13.9 46 7.8 67 67 NNW 21 33 30.22 1023 10 16 0.00 0.00
8:53 am 08:53 Sunny 60 15.6 46 7.8 60 60 NNW 17 28 30.24 1024 10 16 0.00 0.00
9:53 am 09:53 Sunny 63 17.2 45 7.2 52 52 NW 14 22 30.25 1025 10 16 0.00 0.00
10:53 am 10:53 Sunny 65 18.3 45 7.2 49 49 NW 18 30 30.27 1025 10 16 0.00 0.00
11:53 am 11:53 Sunny 68 20 45 7.2 44 44 WNW 18 30 30.27 1025 10 16 0.00 0.00
12:53 pm 12:53 Partly Cloudy 69 20.6 47 8.3 45 45 WNW 18 30 30.27 1025 10 16 0.00 0.00
1:53 pm 13:53 Mostly Sunny 72 22.2 44 6.7 37 37 NW 17 28 30.27 1025 10 16 0.00 0.00
2:53 pm 14:53 Partly Cloudy 73 22.8 44 6.7 35 35 NW 21 33 30.26 1025 10 16 0.00 0.00
3:53 pm 15:53 Partly Cloudy 73 22.8 43 6.1 34 34 NW 17 28 30.26 1025 10 16 0.00 0.00
4:53 pm 16:53 Partly Cloudy 74 23.3 44 6.7 34 34 NNW 15 24 30.25 1024 10 16 0.00 0.00
5:53 pm 17:53 Mostly Cloudy 71 21.7 45 7.2 39 39 NNW 16 26 30.24 1024 10 16 0.00 0.00
6:53 pm 18:53 Sunny 72 22.2 43 6.1 35 35 NW 17 28 30.24 1024 10 16 0.00 0.00
7:53 pm 19:53 Sunny 70 21.1 42 5.6 37 37 NNW 9 15 30.24 1024 10 16 0.00 0.00
8:53 pm 20:53 Sunny 66 18.9 44 6.7 45 45 NW 7 11 30.25 1024 10 16 0.00 0.00
9:53 pm 21:53 Clear 60 15.6 46 7.8 60 60 W 6 9 30.27 1025 10 16 0.00 0.00
10:53 pm 22:53 Clear 59 15 45 7.2 60 60 W 7 11 30.28 1025 10 16 0.00 0.00
11:53 pm 23:53 Clear 57 13.9 45 7.2 64 64 WSW 7 11 30.28 1026 10 16 0.00 0.00

Powered by AerisWeather